^^
Station Historical Data
Daily Summary for January 7, 2017 Units:  Metric    English   Both
« Previous Day
Next Day »
Daily Weekly Monthly Yearly Custom
  High: Low: Average:
Temperature: -17.8 °C -22.6 °C -19.8 °C
Dew Point: -17.8 °C -23.2 °C -20.4 °C
Humidity: Humidity% 92% 92%
Wind Speed: 0km/h 0km/h 3.1km/h
Wind Gust: 0km/h - -
Wind- - South
Pressure: 0 hPa 34442.4 hPa -
Precipitation: 121.92 mm    
Historical Graphs
 
 
Tabular Data for January 7, 2017
Time Temperature Dew Point Pressure Wind Wind Speed Wind Gust Humidity Rainfall Rate (Hourly) solar Conditions
-17.8 °C -17.8 °C 0 hPa Calm     Humidity% 0 mm SoftwareType W/m2 Conditions
00:00 -22.6 °C -23.2 °C 34923.2 hPa South 7.2 km/h 17.9 km/h 92% 0 mm WeatherDisplay:10.37 W/m2 FEW
00:05 -22.6 °C -23.1 °C 34923.2 hPa SE 3.1 km/h 9 km/h 92% 0 mm WeatherDisplay:10.37 W/m2 FEW
00:10 -22.6 °C -23.1 °C 34923.2 hPa SE 1 km/h 10.3 km/h 92% 0 mm WeatherDisplay:10.37 W/m2 FEW
00:15 -22.5 °C -23.1 °C 34909.7 hPa SE 0.3 km/h 3.1 km/h 92% 0 mm WeatherDisplay:10.37 W/m2 FEW
00:20 -22.5 °C -23.1 °C 34909.7 hPa SSE 1.8 km/h 6 km/h 92% 0 mm WeatherDisplay:10.37 W/m2 FEW
00:25 -22.4 °C -23.1 °C 34899.5 hPa SSE 3.4 km/h 7.7 km/h 92% 0 mm WeatherDisplay:10.37 W/m2 FEW
00:30 -22.4 °C -23 °C 34899.5 hPa South 6.8 km/h 15 km/h 92% 0 mm WeatherDisplay:10.37 W/m2 FEW
00:35 -22.4 °C -23 °C 34889.3 hPa East 5 km/h 15 km/h 92% 0 mm WeatherDisplay:10.37 W/m2 FEW
00:40 -22.4 °C -23 °C 34889.3 hPa South 6 km/h 15.6 km/h 92% 0 mm WeatherDisplay:10.37 W/m2 FEW
00:45 -22.4 °C -22.9 °C 34889.3 hPa South 3.4 km/h 11.9 km/h 92% 0 mm WeatherDisplay:10.37 W/m2 FEW
00:50 -22.3 °C -22.9 °C 34875.8 hPa SSE 2.6 km/h 12.9 km/h 92% 0 mm WeatherDisplay:10.37 W/m2 FEW
00:55 -22.3 °C -22.9 °C 34875.8 hPa SSE 1.6 km/h 9 km/h 92% 0 mm WeatherDisplay:10.37 W/m2 FEW
01:00 -22.3 °C -22.9 °C 34875.8 hPa SE 1.3 km/h 6 km/h 92% 0 mm WeatherDisplay:10.37 W/m2 FEW
01:05 -22.3 °C -22.9 °C 34875.8 hPa SW 1.3 km/h 9 km/h 92% 0 mm WeatherDisplay:10.37 W/m2 FEW
01:10 -22.3 °C -22.8 °C 34865.6 hPa SSE 2.1 km/h 7.7 km/h 92% 0 mm WeatherDisplay:10.37 W/m2 FEW
01:15 -22.3 °C -22.8 °C 34852.1 hPa Calm     92% 0 mm WeatherDisplay:10.37 W/m2 FEW
01:20 -22.2 °C -22.8 °C 34852.1 hPa SSE 5.6 km/h 17.9 km/h 92% 0 mm WeatherDisplay:10.37 W/m2 FEW
01:25 -22.2 °C -22.8 °C 34852.1 hPa South 3.4 km/h 11.9 km/h 92% 0 mm WeatherDisplay:10.37 W/m2 FEW
01:30 -22.1 °C -22.7 °C 34841.9 hPa SSE 1.8 km/h 9 km/h 92% 0 mm WeatherDisplay:10.37 W/m2 FEW
01:35 -22.1 °C -22.7 °C 34841.9 hPa South 2.1 km/h 6 km/h 92% 0 mm WeatherDisplay:10.37 W/m2 FEW
01:40 -22.1 °C -22.7 °C 34841.9 hPa South 0.8 km/h 5.1 km/h 92% 0 mm WeatherDisplay:10.37 W/m2 FEW
01:45 -22 °C -22.6 °C 34831.8 hPa Calm     92% 0 mm WeatherDisplay:10.37 W/m2 FEW
01:50 -21.9 °C -22.6 °C 34831.8 hPa Calm     92% 0 mm WeatherDisplay:10.37 W/m2 FEW
01:55 -21.9 °C -22.4 °C 34831.8 hPa Calm     92% 0 mm WeatherDisplay:10.37 W/m2 FEW
02:00 -21.8 °C -22.4 °C 34818.2 hPa SSE 1.6 km/h 9 km/h 92% 0 mm WeatherDisplay:10.37 W/m2 FEW
02:05 -21.7 °C -22.3 °C 34818.2 hPa SSE 1.3 km/h 9 km/h 92% 0 mm WeatherDisplay:10.37 W/m2 FEW
02:10 -21.6 °C -22.2 °C 34808.1 hPa SE 6.8 km/h 17.9 km/h 92% 0 mm WeatherDisplay:10.37 W/m2 FEW
02:15 -21.5 °C -22.1 °C 34808.1 hPa SE 3.7 km/h 11.9 km/h 92% 0 mm WeatherDisplay:10.37 W/m2 FEW
02:20 -21.4 °C -22.1 °C 34797.9 hPa Calm     92% 0 mm WeatherDisplay:10.37 W/m2 FEW
02:25 -21.3 °C -22 °C 34797.9 hPa SE 2.9 km/h 9 km/h 92% 0 mm WeatherDisplay:10.37 W/m2 FEW
02:30 -21.3 °C -21.9 °C 34797.9 hPa SSE 4.7 km/h 9 km/h 92% 0 mm WeatherDisplay:10.37 W/m2 FEW
02:35 -21.3 °C -21.9 °C 34784.4 hPa SE 3.4 km/h 11.9 km/h 92% 0 mm WeatherDisplay:10.37 W/m2 FEW
02:40 -21.2 °C -21.8 °C 34784.4 hPa SSE 2.9 km/h 9 km/h 92% 0 mm WeatherDisplay:10.37 W/m2 FEW
02:45 -21.2 °C -21.8 °C 34774.2 hPa SE 5.6 km/h 9 km/h 92% 0 mm WeatherDisplay:10.37 W/m2 FEW
02:50 -21.2 °C -21.8 °C 34774.2 hPa South 0.3 km/h 20.9 km/h 92% 0 mm WeatherDisplay:10.37 W/m2 FEW
02:55 -21.2 °C -21.8 °C 34774.2 hPa South 2.6 km/h 11.9 km/h 92% 0 mm WeatherDisplay:10.37 W/m2 FEW
03:00 -21.1 °C -21.7 °C 34774.2 hPa NNE 3.1 km/h 11.9 km/h 92% 0 mm WeatherDisplay:10.37 W/m2 FEW
03:05 -21.1 °C -21.7 °C 34774.2 hPa SSE 6.8 km/h 23.8 km/h 92% 0 mm WeatherDisplay:10.37 W/m2 FEW
03:10 -21.1 °C -21.7 °C 34760.7 hPa SE 2.9 km/h 15 km/h 92% 0 mm WeatherDisplay:10.37 W/m2 FEW
03:15 -21 °C -21.6 °C 34750.5 hPa South 10.3 km/h 17.9 km/h 92% 0 mm WeatherDisplay:10.37 W/m2 FEW
03:20 -20.9 °C -21.6 °C 34750.5 hPa South 7.7 km/h 29.8 km/h 92% 0 mm WeatherDisplay:10.37 W/m2 FEW
03:25 -20.9 °C -21.6 °C 34750.5 hPa SSE 9.8 km/h 20.9 km/h 92% 0 mm WeatherDisplay:10.37 W/m2 FEW
03:30 -20.9 °C -21.5 °C 34750.5 hPa SSW 8 km/h 15.6 km/h 92% 0 mm WeatherDisplay:10.37 W/m2 FEW
03:35 -20.9 °C -21.5 °C 34750.5 hPa South 3.7 km/h 26.9 km/h 92% 0 mm WeatherDisplay:10.37 W/m2 FEW
03:40 -20.9 °C -21.5 °C 34750.5 hPa Calm   9 km/h 92% 0 mm WeatherDisplay:10.37 W/m2 FEW
03:45 -20.8 °C -21.4 °C 34740.4 hPa SE 3.7 km/h 15 km/h 92% 0 mm WeatherDisplay:10.37 W/m2 FEW
03:50 -20.8 °C -21.4 °C 34740.4 hPa SW 5.5 km/h 15 km/h 92% 0 mm WeatherDisplay:10.37 W/m2 FEW
03:55 -20.8 °C -21.4 °C 34726.8 hPa North 9.7 km/h 23.8 km/h 92% 0 mm WeatherDisplay:10.37 W/m2 FEW
04:00 -20.8 °C -21.4 °C 34726.8 hPa SE 6.3 km/h 17.9 km/h 92% 0 mm WeatherDisplay:10.37 W/m2 FEW
04:05 -20.8 °C -21.4 °C 34726.8 hPa Calm   9 km/h 92% 0 mm WeatherDisplay:10.37 W/m2 FEW
04:10 -20.7 °C -21.3 °C 34716.7 hPa ESE 6.8 km/h 17.9 km/h 92% 0 mm WeatherDisplay:10.37 W/m2 FEW
04:15 -20.7 °C -21.3 °C 34716.7 hPa South 8 km/h 20.8 km/h 92% 0 mm WeatherDisplay:10.37 W/m2 FEW
04:20 -20.7 °C -21.3 °C 34703.1 hPa SW 10.1 km/h 17.9 km/h 92% 0 mm WeatherDisplay:10.37 W/m2 FEW
04:25 -20.7 °C -21.3 °C 34703.1 hPa ENE 10.3 km/h 29.8 km/h 92% 0 mm WeatherDisplay:10.37 W/m2 FEW
04:30 -20.7 °C -21.3 °C 34703.1 hPa South 7.7 km/h 11.9 km/h 92% 0 mm WeatherDisplay:10.37 W/m2 FEW
04:36 -20.7 °C -21.3 °C 34693 hPa SE 12.7 km/h 29.8 km/h 92% 0 mm WeatherDisplay:10.37 W/m2 FEW
04:41 -20.6 °C -21.2 °C 34693 hPa South 10.9 km/h 20.9 km/h 92% 0 mm WeatherDisplay:10.37 W/m2 FEW
04:46 -20.6 °C -21.2 °C 34682.8 hPa SSE 10.1 km/h 18.2 km/h 92% 0 mm WeatherDisplay:10.37 W/m2 FEW
04:51 -20.6 °C -21.2 °C 34682.8 hPa SSW 8.2 km/h 17.9 km/h 92% 0 mm WeatherDisplay:10.37 W/m2 FEW
04:56 -20.6 °C -21.2 °C 34682.8 hPa North 9.8 km/h 23.8 km/h 92% 0 mm WeatherDisplay:10.37 W/m2 FEW
05:01 -20.6 °C -21.2 °C 34682.8 hPa SSE 5.6 km/h 15 km/h 92% 0 mm WeatherDisplay:10.37 W/m2 FEW
05:06 -20.7 °C -21.3 °C 34669.3 hPa SSE 8.9 km/h 11.9 km/h 92% 0 mm WeatherDisplay:10.37 W/m2 FEW
05:09 -20.7 °C -21.3 °C 34669.3 hPa East 5 km/h 15.6 km/h 92% 0 mm WeatherDisplay:10.37 W/m2 FEW
05:14 -20.7 °C -21.3 °C 34669.3 hPa South 9.3 km/h 20.9 km/h 92% 0 mm WeatherDisplay:10.37 W/m2 FEW
05:19 -20.7 °C -21.3 °C 34659.1 hPa SSE 5 km/h 6 km/h 92% 0 mm WeatherDisplay:10.37 W/m2 FEW
05:24 -20.7 °C -21.3 °C 34659.1 hPa East 4.7 km/h 17.9 km/h 92% 0 mm WeatherDisplay:10.37 W/m2 FEW
05:29 -20.7 °C -21.3 °C 34659.1 hPa SE 2.6 km/h 10.3 km/h 92% 0 mm WeatherDisplay:10.37 W/m2 FEW
05:34 -20.7 °C -21.3 °C 34659.1 hPa SSE 7.6 km/h 35.7 km/h 92% 0 mm WeatherDisplay:10.37 W/m2 FEW
05:39 -20.7 °C -21.3 °C 34659.1 hPa South 9.7 km/h 26.9 km/h 92% 0 mm WeatherDisplay:10.37 W/m2 FEW
05:44 -20.7 °C -21.3 °C 34645.6 hPa SW 6 km/h 15 km/h 92% 0 mm WeatherDisplay:10.37 W/m2 FEW
05:49 -20.7 °C -21.3 °C 34645.6 hPa SSE 7.2 km/h 11.9 km/h 92% 0 mm WeatherDisplay:10.37 W/m2 FEW
05:54 -20.6 °C -21.2 °C 34645.6 hPa WSW 8.5 km/h 9 km/h 92% 0 mm WeatherDisplay:10.37 W/m2 FEW
05:59 -20.6 °C -21.2 °C 34635.4 hPa SSE 6.9 km/h 15 km/h 92% 0 mm WeatherDisplay:10.37 W/m2 FEW
06:04 -20.6 °C -21.2 °C 34635.4 hPa SSE 12.2 km/h 20.9 km/h 92% 0 mm WeatherDisplay:10.37 W/m2 FEW
06:09 -20.6 °C -21.2 °C 34625.2 hPa South 10.6 km/h 10.6 km/h 92% 0 mm WeatherDisplay:10.37 W/m2 FEW
06:14 -20.6 °C -21.2 °C 34625.2 hPa SE 5 km/h 9 km/h 92% 0 mm WeatherDisplay:10.37 W/m2 FEW
06:19 -20.5 °C -21.2 °C 34611.7 hPa SE 4.7 km/h 15 km/h 92% 0 mm WeatherDisplay:10.37 W/m2 FEW
06:24 -20.6 °C -21.2 °C 34611.7 hPa SSE 6.8 km/h 11.9 km/h 92% 0 mm WeatherDisplay:10.37 W/m2 FEW
06:29 -20.6 °C -21.2 °C 34611.7 hPa SSE 14 km/h 18.2 km/h 92% 0 mm WeatherDisplay:10.37 W/m2 FEW
06:34 -20.6 °C -21.2 °C 34611.7 hPa SSW 10.1 km/h 46.7 km/h 92% 0 mm WeatherDisplay:10.37 W/m2 FEW
06:39 -20.6 °C -21.2 °C 34611.7 hPa South 6.8 km/h 9 km/h 92% 0 mm WeatherDisplay:10.37 W/m2 FEW
06:44 -20.6 °C -21.2 °C 34601.5 hPa South 9.8 km/h 17.9 km/h 92% 7.62 mm WeatherDisplay:10.37 W/m2 RA
06:49 -20.6 °C -21.2 °C 34601.5 hPa SSW 5 km/h 11.9 km/h 92% 7.62 mm WeatherDisplay:10.37 W/m2 RA
06:54 -20.7 °C -21.3 °C 34591.4 hPa SSE 10.6 km/h 10.6 km/h 92% 7.62 mm WeatherDisplay:10.37 W/m2 FEW
06:59 -20.7 °C -21.3 °C 34591.4 hPa SSE 6.8 km/h 15 km/h 92% 7.62 mm WeatherDisplay:10.37 W/m2 FEW
07:04 -20.7 °C -21.3 °C 34591.4 hPa SSE 0.5 km/h 9 km/h 92% 7.62 mm WeatherDisplay:10.37 W/m2 FEW
07:09 -20.7 °C -21.3 °C 34591.4 hPa SSE 11.1 km/h 20.9 km/h 92% 7.62 mm WeatherDisplay:10.37 W/m2 FEW
07:14 -20.7 °C -21.3 °C 34591.4 hPa South 3.1 km/h 32.8 km/h 92% 12.7 mm WeatherDisplay:10.37 W/m2 RA
07:19 -20.7 °C -21.3 °C 34591.4 hPa SE 3.7 km/h 9 km/h 92% 12.7 mm WeatherDisplay:10.37 W/m2 RA
07:24 -20.7 °C -21.3 °C 34591.4 hPa SSW 11.4 km/h 20.9 km/h 92% 12.7 mm WeatherDisplay:10.37 W/m2 FEW
07:29 -20.7 °C -21.3 °C 34577.8 hPa NW 3.1 km/h 9 km/h 92% 12.7 mm WeatherDisplay:10.37 W/m2 RA
07:34 -20.7 °C -21.3 °C 34577.8 hPa SSW 5.5 km/h 23.8 km/h 92% 12.7 mm WeatherDisplay:10.37 W/m2 RA
07:39 -20.7 °C -21.3 °C 34577.8 hPa WSW 9.3 km/h 32.8 km/h 92% 12.7 mm WeatherDisplay:10.37 W/m2 FEW
07:44 -20.7 °C -21.3 °C 34567.7 hPa South 14 km/h 41.7 km/h 92% 12.7 mm WeatherDisplay:10.37 W/m2 FEW
07:49 -20.7 °C -21.3 °C 34577.8 hPa SSW 3.9 km/h 35.7 km/h 92% 12.7 mm WeatherDisplay:10.37 W/m2 FEW
07:55 -20.7 °C -21.3 °C 34577.8 hPa North 3.1 km/h 10.3 km/h 92% 12.7 mm WeatherDisplay:10.37 W/m2 RA
08:00 -20.7 °C -21.3 °C 34567.7 hPa South 8.9 km/h 11.9 km/h 92% 12.7 mm WeatherDisplay:10.37 W/m2 RA
08:05 -20.7 °C -21.3 °C 34567.7 hPa SSE 9 km/h 26.9 km/h 92% 12.7 mm WeatherDisplay:10.37 W/m2 FEW
08:10 -20.7 °C -21.3 °C 34567.7 hPa South 11.9 km/h 29.8 km/h 92% 12.7 mm WeatherDisplay:10.37 W/m2 FEW
08:15 -20.7 °C -21.3 °C 34567.7 hPa SE 7.6 km/h 20.9 km/h 92% 12.7 mm WeatherDisplay:10.37 W/m2 FEW
08:20 -20.7 °C -21.3 °C 34567.7 hPa SSE 2.3 km/h 11.9 km/h 92% 12.7 mm WeatherDisplay:10.37 W/m2 RA
08:25 -20.7 °C -21.3 °C 34567.7 hPa SSE 6.8 km/h 11.9 km/h 92% 12.7 mm WeatherDisplay:10.37 W/m2 RA
08:30 -20.7 °C -21.3 °C 34567.7 hPa South 7.7 km/h 17.9 km/h 92% 12.7 mm WeatherDisplay:10.37 W/m2 FEW
08:35 -20.7 °C -21.3 °C 34567.7 hPa South 6 km/h 9 km/h 92% 12.7 mm WeatherDisplay:10.37 W/m2 RA
08:40 -20.6 °C -21.2 °C 34554.1 hPa SSE 9.3 km/h 17.9 km/h 92% 12.7 mm WeatherDisplay:10.37 W/m2 RA
08:45 -20.6 °C -21.2 °C 34554.1 hPa South 9.7 km/h 29.8 km/h 92% 12.7 mm WeatherDisplay:10.37 W/m2 FEW
08:50 -20.6 °C -21.2 °C 34554.1 hPa SW 6.9 km/h 11.9 km/h 92% 12.7 mm WeatherDisplay:10.37 W/m2 FEW
08:55 -20.6 °C -21.2 °C 34554.1 hPa NW 6.3 km/h 10.3 km/h 92% 12.7 mm WeatherDisplay:10.37 W/m2 RA
09:00 -20.5 °C -21.2 °C 34554.1 hPa WSW 5.1 km/h 12.9 km/h 92% 12.7 mm WeatherDisplay:10.37 W/m2 RA
09:05 -20.5 °C -21.1 °C 34554.1 hPa South 6.4 km/h 20.8 km/h 92% 12.7 mm WeatherDisplay:10.37 W/m2 FEW
09:10 -20.5 °C -21.1 °C 34554.1 hPa WSW 8.5 km/h 26.9 km/h 92% 12.7 mm WeatherDisplay:10.37 W/m2 FEW
09:15 -20.5 °C -21.1 °C 34554.1 hPa SSE 2.3 km/h 6 km/h 92% 20.32 mm WeatherDisplay:10.37 W/m2 RA
09:20 -20.4 °C -21.1 °C 34554.1 hPa South 7.2 km/h 12.9 km/h 92% 12.7 mm WeatherDisplay:10.37 W/m2 RA
09:25 -20.4 °C -21.1 °C 34554.1 hPa SSE 6.4 km/h 9 km/h 92% 20.32 mm WeatherDisplay:10.37 W/m2 RA
09:30 -20.4 °C -21 °C 34544 hPa SSE 9.3 km/h 23.8 km/h 92% 20.32 mm WeatherDisplay:10.37 W/m2 RA
09:35 -20.4 °C -21 °C 34544 hPa South 3.4 km/h 11.9 km/h 92% 12.7 mm WeatherDisplay:10.37 W/m2 FEW
09:40 -20.4 °C -21 °C 34544 hPa North 0.8 km/h 9 km/h 92% 20.32 mm WeatherDisplay:10.37 W/m2 RA
09:45 -20.3 °C -20.9 °C 34533.8 hPa SW 1.8 km/h 11.9 km/h 92% 20.32 mm WeatherDisplay:10.37 W/m2 RA
09:50 -20.3 °C -20.9 °C 34533.8 hPa South 2.1 km/h 20.9 km/h 92% 25.4 mm WeatherDisplay:10.37 W/m2 RA
09:55 -20.3 °C -20.9 °C 34533.8 hPa East 3.1 km/h 9 km/h 92% 20.32 mm WeatherDisplay:10.37 W/m2 RA
10:00 -20.3 °C -20.9 °C 34533.8 hPa SSW 7.7 km/h 20.8 km/h 92% 25.4 mm WeatherDisplay:10.37 W/m2 RA
10:05 -20.3 °C -20.9 °C 34533.8 hPa West 6.4 km/h 9 km/h 92% 25.4 mm WeatherDisplay:10.37 W/m2 RA
10:10 -20.3 °C -20.9 °C 34533.8 hPa SE 2.1 km/h 11.9 km/h 92% 25.4 mm WeatherDisplay:10.37 W/m2 FEW
10:15 -20.2 °C -20.9 °C 34533.8 hPa South 7.6 km/h 23.8 km/h 92% 25.4 mm WeatherDisplay:10.37 W/m2 RA
10:20 -20.2 °C -20.8 °C 34533.8 hPa SE 2.6 km/h 20.9 km/h 92% 25.4 mm WeatherDisplay:10.37 W/m2 RA
10:25 -20.2 °C -20.8 °C 34533.8 hPa SW 3.1 km/h 11.9 km/h 92% 25.4 mm WeatherDisplay:10.37 W/m2 RA
10:30 -20.2 °C -20.8 °C 34520.3 hPa SSE 3.9 km/h 17.9 km/h 92% 25.4 mm WeatherDisplay:10.37 W/m2 RA
10:35 -20.1 °C -20.7 °C 34520.3 hPa SSE 3.7 km/h 9 km/h 92% 33.02 mm WeatherDisplay:10.37 W/m2 RA
10:40 -20.1 °C -20.7 °C 34520.3 hPa SSE 4.3 km/h 15.6 km/h 92% 25.4 mm WeatherDisplay:10.37 W/m2 RA
10:45 -20.1 °C -20.7 °C 34520.3 hPa SSW 4.3 km/h 6 km/h 92% 33.02 mm WeatherDisplay:10.37 W/m2 RA
10:50 -20.1 °C -20.7 °C 34520.3 hPa Calm   20.9 km/h 92% 25.4 mm WeatherDisplay:10.37 W/m2 RA
10:55 -20 °C -20.6 °C 34520.3 hPa ESE 3.4 km/h 6 km/h 92% 25.4 mm WeatherDisplay:10.37 W/m2 FEW
11:00 -19.9 °C -20.6 °C 34520.3 hPa SE 2.3 km/h 9 km/h 92% 25.4 mm WeatherDisplay:10.37 W/m2 RA
11:05 -19.9 °C -20.5 °C 34510.1 hPa SSE 2.6 km/h 10.3 km/h 92% 25.4 mm WeatherDisplay:10.37 W/m2 RA
11:10 -19.8 °C -20.4 °C 34510.1 hPa SSE 5.6 km/h 15 km/h 92% 25.4 mm WeatherDisplay:10.37 W/m2 FEW
11:15 -19.8 °C -20.4 °C 34510.1 hPa Calm     92% 25.4 mm WeatherDisplay:10.37 W/m2 RA
11:20 -19.7 °C -20.3 °C 34496.6 hPa SSW 5.1 km/h 15 km/h 92% 25.4 mm WeatherDisplay:10.37 W/m2 RA
11:23 -19.7 °C -20.3 °C 34510.1 hPa South 4.7 km/h 17.9 km/h 92% 20.32 mm WeatherDisplay:10.37 W/m2 FEW
11:28 -19.7 °C -20.3 °C 34496.6 hPa South 0.8 km/h 9 km/h 92% 20.32 mm WeatherDisplay:10.37 W/m2 FEW
11:33 -19.6 °C -20.2 °C 34496.6 hPa SSE 5 km/h 15 km/h 92% 20.32 mm WeatherDisplay:10.37 W/m2 RA
11:38 -19.6 °C -20.2 °C 34496.6 hPa Calm     92% 20.32 mm WeatherDisplay:10.37 W/m2 RA
11:43 -19.6 °C -20.2 °C 34496.6 hPa SSE 1.6 km/h 9 km/h 92% 12.7 mm WeatherDisplay:10.37 W/m2 FEW
11:48 -19.5 °C -20.1 °C 34496.6 hPa SSW 0.8 km/h 9 km/h 92% 12.7 mm WeatherDisplay:10.37 W/m2 FEW
11:53 -19.5 °C -20.1 °C 34496.6 hPa SSE 6.4 km/h 12.9 km/h 92% 12.7 mm WeatherDisplay:10.37 W/m2 FEW
11:58 -19.4 °C -20.1 °C 34486.4 hPa ESE 3.7 km/h 9 km/h 92% 12.7 mm WeatherDisplay:10.37 W/m2 RA
12:03 -19.4 °C -20.1 °C 34486.4 hPa SSE 8.5 km/h 15.6 km/h 92% 12.7 mm WeatherDisplay:10.37 W/m2 RA
12:08 -19.4 °C -20.1 °C 34486.4 hPa ESE 5 km/h 10.3 km/h 92% 12.7 mm WeatherDisplay:10.37 W/m2 FEW
12:13 -19.4 °C -20 °C 34476.3 hPa South 6 km/h 15 km/h 92% 12.7 mm WeatherDisplay:10.37 W/m2 RA
12:18 -19.3 °C -19.9 °C 34476.3 hPa WNW 4.3 km/h 11.9 km/h 92% 12.7 mm WeatherDisplay:10.37 W/m2 RA
12:23 -19.3 °C -19.9 °C 34476.3 hPa NNW 3.7 km/h 11.9 km/h 92% 12.7 mm WeatherDisplay:10.37 W/m2 FEW
12:28 -19.3 °C -19.9 °C 34476.3 hPa SSE 2.3 km/h 11.9 km/h 92% 12.7 mm WeatherDisplay:10.37 W/m2 FEW
12:33 -19.3 °C -19.9 °C 34476.3 hPa ESE 2.3 km/h 11.9 km/h 92% 12.7 mm WeatherDisplay:10.37 W/m2 FEW
12:38 -19.2 °C -19.8 °C 34476.3 hPa South 10.3 km/h 17.9 km/h 92% 12.7 mm WeatherDisplay:10.37 W/m2 FEW
12:43 -19.2 °C -19.8 °C 34476.3 hPa ESE 1.6 km/h 9 km/h 92% 12.7 mm WeatherDisplay:10.37 W/m2 FEW
12:48 -19.2 °C -19.8 °C 34476.3 hPa SSE 5.5 km/h 9 km/h 92% 12.7 mm WeatherDisplay:10.37 W/m2 FEW
12:53 -19.2 °C -19.8 °C 34462.7 hPa SSE 10.1 km/h 26.9 km/h 92% 12.7 mm WeatherDisplay:10.37 W/m2 RA
12:58 -19.2 °C -19.8 °C 34462.7 hPa NNW 2.3 km/h 9 km/h 92% 12.7 mm WeatherDisplay:10.37 W/m2 RA
13:03 -19.2 °C -19.8 °C 34462.7 hPa SSW 6.4 km/h 29.8 km/h 92% 12.7 mm WeatherDisplay:10.37 W/m2 FEW
13:08 -19.2 °C -19.8 °C 34462.7 hPa Calm   2.6 km/h 92% 12.7 mm WeatherDisplay:10.37 W/m2 FEW
13:13 -19.2 °C -19.8 °C 34462.7 hPa South 1.6 km/h 11.9 km/h 92% 7.62 mm WeatherDisplay:10.37 W/m2 FEW
13:18 -19.2 °C -19.8 °C 34452.6 hPa SE 0.5 km/h 5.1 km/h 92% 7.62 mm WeatherDisplay:10.37 W/m2 FEW
13:23 -19.1 °C -19.8 °C 34452.6 hPa WSW 10.3 km/h 23.8 km/h 92% 7.62 mm WeatherDisplay:10.37 W/m2 FEW
13:28 -19.1 °C -19.8 °C 34452.6 hPa WSW 5.5 km/h 29.8 km/h 92% 7.62 mm WeatherDisplay:10.37 W/m2 FEW
13:33 -19.1 °C -19.7 °C 34452.6 hPa SW 1 km/h 9 km/h 92% 12.7 mm WeatherDisplay:10.37 W/m2 RA
13:38 -19.1 °C -19.7 °C 34452.6 hPa SSW 3.9 km/h 18.2 km/h 92% 12.7 mm WeatherDisplay:10.37 W/m2 RA
13:43 -19.1 °C -19.7 °C 34442.4 hPa SSE 1.6 km/h 12.9 km/h 92% 12.7 mm WeatherDisplay:10.37 W/m2 FEW
13:48 -19.1 °C -19.7 °C 34442.4 hPa SSW 6.4 km/h 6.4 km/h 92% 12.7 mm WeatherDisplay:10.37 W/m2 FEW
13:53 -19.1 °C -19.7 °C 34442.4 hPa ESE 3.4 km/h 6 km/h 92% 7.62 mm WeatherDisplay:10.37 W/m2 FEW
13:58 -19 °C -19.6 °C 34442.4 hPa SE 1.8 km/h 11.9 km/h 92% 7.62 mm WeatherDisplay:10.37 W/m2 FEW
14:03 -19 °C -19.6 °C 34442.4 hPa SSE 2.9 km/h 9 km/h 92% 7.62 mm WeatherDisplay:10.37 W/m2 FEW
14:09 -19 °C -19.6 °C 34442.4 hPa ESE 5.5 km/h 9 km/h 92% 7.62 mm WeatherDisplay:10.37 W/m2 FEW
14:14 -18.9 °C -19.6 °C 34442.4 hPa SSW 7.7 km/h 23.8 km/h 92% 7.62 mm WeatherDisplay:10.37 W/m2 FEW
14:19 -18.9 °C -19.6 °C 34442.4 hPa SSE 5.1 km/h 15 km/h 92% 7.62 mm WeatherDisplay:10.37 W/m2 FEW
14:24 -18.9 °C -19.5 °C 34442.4 hPa Calm     92% 7.62 mm WeatherDisplay:10.37 W/m2 FEW
14:29 -18.9 °C -19.5 °C 34452.6 hPa South 2.1 km/h 11.9 km/h 92% 0 mm WeatherDisplay:10.37 W/m2 FEW
14:34 -18.8 °C -19.5 °C 34452.6 hPa SSE 2.3 km/h 9 km/h 92% 0 mm WeatherDisplay:10.37 W/m2 FEW
14:39 -18.8 °C -19.5 °C 34452.6 hPa Calm     92% 0 mm WeatherDisplay:10.37 W/m2 FEW
14:44 -18.8 °C -19.4 °C 34452.6 hPa SSE 3.1 km/h 10.3 km/h 92% 0 mm WeatherDisplay:10.37 W/m2 FEW
14:49 -18.8 °C -19.4 °C 34452.6 hPa Calm     92% 0 mm WeatherDisplay:10.37 W/m2 FEW
14:54 -18.8 °C -19.4 °C 34452.6 hPa Calm   6 km/h 92% 0 mm WeatherDisplay:10.37 W/m2 FEW
14:59 -18.8 °C -19.4 °C 34452.6 hPa SSW 1 km/h 9 km/h 92% 0 mm WeatherDisplay:10.37 W/m2 FEW
15:04 -18.8 °C -19.4 °C 34452.6 hPa South 1 km/h 6 km/h 92% 7.62 mm WeatherDisplay:10.37 W/m2 RA
15:09 -18.8 °C -19.4 °C 34452.6 hPa South 2.6 km/h 6 km/h 92% 7.62 mm WeatherDisplay:10.37 W/m2 RA
15:14 -18.8 °C -19.4 °C 34452.6 hPa WNW 1.6 km/h 6 km/h 92% 7.62 mm WeatherDisplay:10.37 W/m2 FEW
15:19 -18.8 °C -19.4 °C 34452.6 hPa Calm     92% 7.62 mm WeatherDisplay:10.37 W/m2 FEW
15:24 -18.8 °C -19.4 °C 34452.6 hPa Calm   5.1 km/h 92% 7.62 mm WeatherDisplay:10.37 W/m2 FEW
15:29 -18.8 °C -19.4 °C 34452.6 hPa Calm   11.9 km/h 92% 7.62 mm WeatherDisplay:10.37 W/m2 FEW
15:34 -18.8 °C -19.4 °C 34452.6 hPa Calm   2.6 km/h 92% 7.62 mm WeatherDisplay:10.37 W/m2 FEW
15:39 -18.8 °C -19.4 °C 34452.6 hPa South 0.8 km/h 10.3 km/h 92% 7.62 mm WeatherDisplay:10.37 W/m2 FEW
15:44 -18.8 °C -19.4 °C 34452.6 hPa Calm     92% 7.62 mm WeatherDisplay:10.37 W/m2 FEW
15:49 -18.8 °C -19.4 °C 34462.7 hPa Calm     92% 7.62 mm WeatherDisplay:10.37 W/m2 FEW
15:54 -18.8 °C -19.4 °C 34462.7 hPa Calm     92% 7.62 mm WeatherDisplay:10.37 W/m2 FEW
15:59 -18.8 °C -19.4 °C 34462.7 hPa Calm     92% 7.62 mm WeatherDisplay:10.37 W/m2 FEW
16:04 -18.8 °C -19.4 °C 34462.7 hPa Calm     92% 0 mm WeatherDisplay:10.37 W/m2 FEW
16:09 -18.7 °C -19.3 °C 34462.7 hPa Calm     92% 0 mm WeatherDisplay:10.37 W/m2 FEW
16:14 -18.8 °C -19.4 °C 34452.6 hPa Calm     92% 0 mm WeatherDisplay:10.37 W/m2 FEW
16:19 -18.8 °C -19.4 °C 34452.6 hPa Calm     92% 0 mm WeatherDisplay:10.37 W/m2 FEW
16:24 -18.7 °C -19.3 °C 34462.7 hPa Calm     92% 0 mm WeatherDisplay:10.37 W/m2 FEW
16:29 -18.7 °C -19.3 °C 34462.7 hPa Calm     92% 0 mm WeatherDisplay:10.37 W/m2 FEW
16:34 -18.7 °C -19.3 °C 34462.7 hPa Calm     92% 0 mm WeatherDisplay:10.37 W/m2 FEW
16:39 -18.7 °C -19.3 °C 34462.7 hPa Calm     92% 0 mm WeatherDisplay:10.37 W/m2 FEW
16:44 -18.7 °C -19.3 °C 34462.7 hPa Calm     92% 0 mm WeatherDisplay:10.37 W/m2 FEW
16:49 -18.7 °C -19.3 °C 34462.7 hPa Calm     92% 0 mm WeatherDisplay:10.37 W/m2 FEW
16:54 -18.7 °C -19.3 °C 34476.3 hPa Calm     92% 0 mm WeatherDisplay:10.37 W/m2 FEW
16:59 -18.7 °C -19.3 °C 34476.3 hPa Calm     92% 0 mm WeatherDisplay:10.37 W/m2 FEW
17:04 -18.7 °C -19.3 °C 34476.3 hPa Calm     92% 0 mm WeatherDisplay:10.37 W/m2 FEW
17:09 -18.7 °C -19.3 °C 34476.3 hPa Calm     92% 0 mm WeatherDisplay:10.37 W/m2 FEW
17:14 -18.7 °C -19.3 °C 34476.3 hPa Calm     92% 0 mm WeatherDisplay:10.37 W/m2 FEW
17:19 -18.7 °C -19.3 °C 34476.3 hPa Calm     92% 0 mm WeatherDisplay:10.37 W/m2 FEW
17:24 -18.7 °C -19.3 °C 34476.3 hPa Calm     92% 0 mm WeatherDisplay:10.37 W/m2 FEW
17:29 -18.7 °C -19.3 °C 34476.3 hPa Calm     92% 0 mm WeatherDisplay:10.37 W/m2 FEW
17:34 -18.7 °C -19.3 °C 34462.7 hPa Calm     92% 0 mm WeatherDisplay:10.37 W/m2 FEW
17:39 -18.7 °C -19.3 °C 34476.3 hPa Calm     92% 0 mm WeatherDisplay:10.37 W/m2 FEW
17:44 -18.7 °C -19.3 °C 34476.3 hPa Calm     92% 0 mm WeatherDisplay:10.37 W/m2 FEW
17:49 -18.7 °C -19.3 °C 34476.3 hPa Calm     92% 0 mm WeatherDisplay:10.37 W/m2 FEW
17:54 -18.7 °C -19.3 °C 34486.4 hPa Calm     92% 0 mm WeatherDisplay:10.37 W/m2 FEW
17:59 -18.7 °C -19.3 °C 34486.4 hPa Calm     92% 0 mm WeatherDisplay:10.37 W/m2 FEW
18:04 -18.7 °C -19.3 °C 34476.3 hPa Calm     92% 0 mm WeatherDisplay:10.37 W/m2 FEW
18:09 -18.7 °C -19.3 °C 34486.4 hPa Calm     92% 0 mm WeatherDisplay:10.37 W/m2 FEW
18:14 -18.7 °C -19.3 °C 34486.4 hPa Calm     92% 0 mm WeatherDisplay:10.37 W/m2 FEW
18:19 -18.7 °C -19.3 °C 34486.4 hPa Calm     92% 0 mm WeatherDisplay:10.37 W/m2 FEW
18:24 -18.7 °C -19.3 °C 34486.4 hPa Calm     92% 0 mm WeatherDisplay:10.37 W/m2 FEW
18:29 -18.7 °C -19.3 °C 34486.4 hPa Calm     92% 0 mm WeatherDisplay:10.37 W/m2 FEW
18:34 -18.7 °C -19.3 °C 34486.4 hPa Calm     92% 0 mm WeatherDisplay:10.37 W/m2 FEW
18:39 -18.7 °C -19.3 °C 34486.4 hPa Calm     92% 0 mm WeatherDisplay:10.37 W/m2 FEW
18:44 -18.7 °C -19.3 °C 34486.4 hPa Calm     92% 0 mm WeatherDisplay:10.37 W/m2 FEW
18:49 -18.7 °C -19.3 °C 34486.4 hPa Calm     92% 0 mm WeatherDisplay:10.37 W/m2 FEW
18:54 -18.7 °C -19.3 °C 34486.4 hPa Calm     92% 0 mm WeatherDisplay:10.37 W/m2 FEW
18:59 -18.7 °C -19.3 °C 34486.4 hPa Calm   6 km/h 92% 0 mm WeatherDisplay:10.37 W/m2 FEW
19:04 -18.7 °C -19.3 °C 34486.4 hPa Calm     92% 0 mm WeatherDisplay:10.37 W/m2 FEW
19:09 -18.6 °C -19.2 °C 34486.4 hPa Calm     92% 0 mm WeatherDisplay:10.37 W/m2 FEW
19:14 -18.7 °C -19.3 °C 34486.4 hPa Calm     92% 0 mm WeatherDisplay:10.37 W/m2 FEW
19:19 -18.7 °C -19.3 °C 34486.4 hPa Calm     92% 0 mm WeatherDisplay:10.37 W/m2 FEW
19:24 -18.7 °C -19.3 °C 34476.3 hPa Calm     92% 0 mm WeatherDisplay:10.37 W/m2 FEW
19:29 -18.7 °C -19.3 °C 34486.4 hPa Calm     92% 0 mm WeatherDisplay:10.37 W/m2 FEW
19:34 -18.8 °C -19.4 °C 34486.4 hPa Calm     92% 0 mm WeatherDisplay:10.37 W/m2 FEW
19:40 -18.8 °C -19.4 °C 34486.4 hPa Calm     92% 0 mm WeatherDisplay:10.37 W/m2 FEW
19:45 -18.9 °C -19.5 °C 34486.4 hPa Calm     92% 0 mm WeatherDisplay:10.37 W/m2 FEW
19:50 -18.9 °C -19.6 °C 34486.4 hPa Calm     92% 0 mm WeatherDisplay:10.37 W/m2 FEW
19:55 -18.9 °C -19.6 °C 34496.6 hPa Calm     92% 0 mm WeatherDisplay:10.37 W/m2 FEW
20:00 -18.9 °C -19.6 °C 34496.6 hPa Calm     92% 0 mm WeatherDisplay:10.37 W/m2 FEW
20:05 -18.9 °C -19.6 °C 34496.6 hPa Calm     92% 0 mm WeatherDisplay:10.37 W/m2 FEW
20:10 -18.9 °C -19.6 °C 34510.1 hPa Calm     92% 0 mm WeatherDisplay:10.37 W/m2 FEW
20:15 -18.9 °C -19.5 °C 34496.6 hPa Calm     92% 0 mm WeatherDisplay:10.37 W/m2 FEW
20:20 -18.8 °C -19.5 °C 34510.1 hPa Calm     92% 0 mm WeatherDisplay:10.37 W/m2 FEW
20:25 -18.8 °C -19.4 °C 34510.1 hPa Calm     92% 0 mm WeatherDisplay:10.37 W/m2 FEW
20:30 -18.8 °C -19.4 °C 34510.1 hPa Calm     92% 0 mm WeatherDisplay:10.37 W/m2 FEW
20:35 -18.8 °C -19.4 °C 34510.1 hPa Calm     92% 0 mm WeatherDisplay:10.37 W/m2 FEW
20:40 -18.8 °C -19.4 °C 34510.1 hPa Calm     92% 0 mm WeatherDisplay:10.37 W/m2 FEW
20:45 -18.8 °C -19.4 °C 34510.1 hPa Calm     92% 0 mm WeatherDisplay:10.37 W/m2 FEW
20:50 -18.8 °C -19.4 °C 34510.1 hPa Calm     92% 0 mm WeatherDisplay:10.37 W/m2 FEW
20:55 -18.8 °C -19.4 °C 34510.1 hPa Calm     92% 0 mm WeatherDisplay:10.37 W/m2 FEW
21:00 -18.8 °C -19.4 °C 34520.3 hPa Calm     92% 0 mm WeatherDisplay:10.37 W/m2 FEW
21:05 -18.8 °C -19.4 °C 34520.3 hPa Calm     92% 0 mm WeatherDisplay:10.37 W/m2 FEW
21:10 -18.8 °C -19.4 °C 34520.3 hPa Calm     92% 0 mm WeatherDisplay:10.37 W/m2 FEW
21:15 -18.8 °C -19.4 °C 34520.3 hPa Calm     92% 0 mm WeatherDisplay:10.37 W/m2 FEW
21:20 -18.8 °C -19.4 °C 34520.3 hPa Calm     92% 0 mm WeatherDisplay:10.37 W/m2 FEW
21:25 -18.8 °C -19.4 °C 34520.3 hPa Calm     92% 0 mm WeatherDisplay:10.37 W/m2 FEW
21:30 -18.8 °C -19.4 °C 34520.3 hPa Calm     92% 0 mm WeatherDisplay:10.37 W/m2 FEW
21:35 -18.8 °C -19.4 °C 34520.3 hPa Calm     92% 0 mm WeatherDisplay:10.37 W/m2 FEW
21:40 -18.8 °C -19.4 °C 34520.3 hPa Calm     92% 0 mm WeatherDisplay:10.37 W/m2 FEW
21:45 -18.8 °C -19.4 °C 34533.8 hPa Calm     92% 0 mm WeatherDisplay:10.37 W/m2 FEW
21:50 -18.8 °C -19.4 °C 34533.8 hPa Calm     92% 0 mm WeatherDisplay:10.37 W/m2 FEW
21:55 -18.8 °C -19.4 °C 34533.8 hPa Calm     92% 0 mm WeatherDisplay:10.37 W/m2 FEW
22:00 -18.8 °C -19.4 °C 34533.8 hPa Calm     92% 0 mm WeatherDisplay:10.37 W/m2 FEW
22:05 -18.8 °C -19.4 °C 34533.8 hPa Calm     92% 0 mm WeatherDisplay:10.37 W/m2 FEW
22:10 -18.8 °C -19.4 °C 34533.8 hPa Calm     92% 0 mm WeatherDisplay:10.37 W/m2 FEW
22:15 -18.8 °C -19.4 °C 34533.8 hPa Calm     92% 0 mm WeatherDisplay:10.37 W/m2 FEW
22:20 -18.8 °C -19.4 °C 34533.8 hPa Calm     92% 0 mm WeatherDisplay:10.37 W/m2 FEW
22:25 -18.8 °C -19.4 °C 34533.8 hPa Calm     92% 0 mm WeatherDisplay:10.37 W/m2 FEW
22:30 -18.8 °C -19.4 °C 34533.8 hPa Calm     92% 0 mm WeatherDisplay:10.37 W/m2 FEW
22:35 -18.8 °C -19.4 °C 34533.8 hPa Calm     92% 0 mm WeatherDisplay:10.37 W/m2 FEW
22:40 -18.8 °C -19.4 °C 34533.8 hPa Calm     92% 0 mm WeatherDisplay:10.37 W/m2 FEW
22:45 -18.8 °C -19.4 °C 34533.8 hPa Calm     92% 0 mm WeatherDisplay:10.37 W/m2 FEW
22:50 -18.8 °C -19.4 °C 34533.8 hPa Calm     92% 0 mm WeatherDisplay:10.37 W/m2 FEW
22:56 -18.8 °C -19.4 °C 34544 hPa Calm     92% 0 mm WeatherDisplay:10.37 W/m2 FEW
23:01 -18.8 °C -19.4 °C 34533.8 hPa Calm     92% 0 mm WeatherDisplay:10.37 W/m2 FEW
23:06 -18.8 °C -19.4 °C 34533.8 hPa Calm     92% 0 mm WeatherDisplay:10.37 W/m2 FEW
23:11 -18.8 °C -19.4 °C 34544 hPa Calm     92% 0 mm WeatherDisplay:10.37 W/m2 FEW
23:16 -18.8 °C -19.4 °C 34544 hPa Calm     92% 0 mm WeatherDisplay:10.37 W/m2 FEW
23:21 -18.8 °C -19.4 °C 34544 hPa Calm     92% 0 mm WeatherDisplay:10.37 W/m2 FEW
23:26 -18.8 °C -19.4 °C 34544 hPa Calm     92% 0 mm WeatherDisplay:10.37 W/m2 FEW
23:31 -18.8 °C -19.4 °C 34544 hPa Calm     92% 0 mm WeatherDisplay:10.37 W/m2 FEW
23:36 -18.8 °C -19.4 °C 34554.1 hPa Calm     92% 0 mm WeatherDisplay:10.37 W/m2 FEW
23:41 -18.8 °C -19.4 °C 34554.1 hPa Calm     92% 0 mm WeatherDisplay:10.37 W/m2 FEW
23:46 -18.8 °C -19.4 °C 34554.1 hPa Calm     92% 0 mm WeatherDisplay:10.37 W/m2 FEW
23:52 -18.8 °C -19.4 °C 34554.1 hPa Calm     92% 0 mm WeatherDisplay:10.37 W/m2 FEW
23:57 -18.8 °C -19.4 °C 34554.1 hPa NNW 2.1 km/h 2.6 km/h 92% 0 mm WeatherDisplay:10.37 W/m2 FEW
Tuulensuunkaari, Veikkola, Suomi
Compliments of Weather Underground - 2.75 mb